Home   Weather   Fairfield   Past weeks
Flag for USA

Past Weather in Fairfield, Virginia, USA — Yesterday and Last 2 Weeks

Now
60 °F

Passing clouds.


Feels Like: 60 °F
Forecast: 72 / 45 °F
Wind: 6 mph from Southeast

Location: Roanoke Regional Airport

Current Time: Apr 4, 2020 at 12:00:16 pm

Latest Report: Apr 4, 2020 at 10:54 am


Visibility: 10 mi

Pressure: 30.02 "Hg

Humidity: 27%

Dew Point: 26 °F

Location of FairfieldLocation

Past Weather in Fairfield — Graph

°F

Fairfield Temperature Yesterday

Maximum temperature yesterday: 69 °F (at 4:54 pm)
Minimum temperature yesterday: 46 °F (at 6:54 am)
Average temperature yesterday: 57 °F

High & Low Weather Summary for the Past Weeks

 TemperatureHumidityPressure
High85 °F (Mar 29, 2:54 pm)97% (Mar 24, 11:00 pm)30.50 "Hg (Mar 24, 11:00 pm)
Low41 °F (Mar 23, 3:54 am)13% (Mar 30, 3:54 pm)29.76 "Hg (Apr 1, 12:54 am)
Average56 °F64%30.02 "Hg
* Reported Mar 20 9:54 am — Apr 4 9:54 am, Fairfield. Weather by CustomWeather, © 2020

Note: Actual official high and low records may vary slightly from our data, if they occured in-between our weather recording intervals... More about our weather records

Fairfield Weather History for the Previous 24 Hours

Scroll right to see more
 ConditionsComfort  
Time TempWeatherWind HumidityBarometerVisibility
9:54 am
Sat, Apr 4
58 °FScattered clouds.No wind27%30.01 "Hg10 mi
8:54 am56 °FPassing clouds.3 mph29%30.02 "Hg10 mi
7:54 am48 °FPassing clouds.3 mph46%30.00 "Hg10 mi
6:54 am47 °FClear.3 mph41%29.97 "Hg10 mi
5:54 am52 °FClear.3 mph28%29.95 "Hg10 mi
4:54 am52 °FClear.5 mph32%29.94 "Hg10 mi
3:54 am53 °FClear.No wind32%29.93 "Hg10 mi
2:54 am56 °FClear.No wind29%29.94 "Hg10 mi
1:54 am55 °FClear.No wind31%29.94 "Hg10 mi
12:54 am54 °FClear.9 mph35%29.94 "Hg10 mi
11:54 pm
Fri, Apr 3
55 °FClear.10 mph34%29.94 "Hg10 mi
10:54 pm56 °FClear.6 mph30%29.95 "Hg10 mi
9:54 pm61 °FClear.No wind21%29.94 "Hg10 mi
8:54 pm59 °FPassing clouds.10 mph26%29.92 "Hg10 mi
7:54 pm61 °FPassing clouds.10 mph23%29.90 "Hg10 mi
6:54 pm66 °FPassing clouds.15 mph19%29.88 "Hg10 mi
5:54 pm68 °FPassing clouds.22 mph17%29.87 "Hg10 mi
4:54 pm69 °FPassing clouds.17 mph17%29.86 "Hg10 mi
3:54 pm68 °FPassing clouds.17 mph20%29.88 "Hg10 mi
2:54 pm67 °FSunny.18 mph17%29.90 "Hg10 mi
1:54 pm67 °FSunny.22 mph20%29.92 "Hg10 mi
12:54 pm64 °FSunny.17 mph19%29.94 "Hg10 mi
Weather by CustomWeather, © 2020

See weather overview

Advertising